Starlink 3357

operational
NORAD ID: 51150 Int'l Des: 2022-005 Owner: SPXS Country: US Constellation: starlink
LEOCIRCULAR

About Starlink 3357

Description loading...

Live Position

Loading 3D Globe...

Upcoming Passes

Altitude History

Altitude vs Time

uPlot chart will show altitude changes over time

Two-Line Element Set

1 51150U 22005AY 26062.10352015 -.00000690 00000-0 -25252-4 0 9991
2 51150 53.2200 328.3063 0001652 109.1925 250.9247 15.08833206227750
Epoch: Mar 3, 2026 • Age: 38 hours

Current Status

Altitude 541.9 km
Velocity 7.59 km/s
Sub-Earth Point -8.58°S, 131.19°E
Launch Date Jan 19, 2022
Age 4.1 years
Type internet

Technical Details

Classification Payload
Mass 297.00 kg
Dry Mass 275.00 kg
Total Mass 297.00 kg
Length 0.20 m
Diameter 2.80 m
Span 9.00 m
Shape Box + pan
Manufacturer SPXS
Bus Type Starlink
Phase Status In Orbit
Owner/State SPXS/US

Large Constellations

Loading constellations...